Regional Weather Roundup
Issued by NWS

Home | Current Version | Previous Version | Graphics & Text | Print | Product List | Glossary On
Versions: 1 2 3 4 5 6 7 8 9 10 11 12 13 14 15 16 17 18 19 20 21 22 23 24 25 26 27 28 29 30 31 32 33 34 35 36 37 38 39 40 41 42 43 44 45 46 47 48 49 50
000
ASUS43 KBIS 271610
RWRND

NORTH DAKOTA REGIONAL WEATHER ROUNDUP
NATIONAL WEATHER SERVICE BISMARCK ND
1000 AM CST MON FEB 27 2017

NOTE: "FAIR" INDICATES FEW OR NO CLOUDS BELOW 12,000 FEET WITH NO
SIGNIFICANT WEATHER AND/OR OBSTRUCTIONS TO VISIBILITY.


NDZ001>003-009>011-017-271700-
NORTHWEST NORTH DAKOTA

CITY           SKY/WX    TMP DP  RH WIND       PRES   REMARKS
WILLISTON      LGT SNOW  11   6  81 NE13      29.84R WCI  -4
MINOT          LGT SNOW  13   7  77 NW13      29.85R WCI  -2
MINOT AFB      LGT SNOW  10   5  79 NW12      29.85S WCI  -4
$$

NDZ018>021-031>035-040>046-271700-
SOUTHWEST NORTH DAKOTA

CITY           SKY/WX    TMP DP  RH WIND       PRES   REMARKS
BISMARCK       CLOUDY    15  12  88 E7        29.82R WCI   5
DICKINSON      CLOUDY    20  15  81 NE12      29.71R WCI   8
GARRISON         N/A     14  10  84 N10       29.82R WCI   1
HETTINGER ARPT CLOUDY    21  18  88 SE8       29.71R WCI  11
$$

NDZ004>008-012>016-024-026-027-054-271700-
NORTHEAST NORTH DAKOTA

CITY           SKY/WX    TMP DP  RH WIND       PRES   REMARKS
GRAND FORKS    CLOUDY    19  12  74 SE3       29.90R
GRND FRKS AFB  PTSUNNY   20  11  69 CALM      29.90R
DEVILS LAKE    LGT SNOW  14  10  85 NW6       29.86R FOG     WCI   5
$$

NDZ022-023-025-028>030-036>039-047>053-271700-
SOUTHEAST NORTH DAKOTA

CITY           SKY/WX    TMP DP  RH WIND       PRES   REMARKS
FARGO          SUNNY     24  15  68 E8        29.89S WCI  15
JAMESTOWN      PTSUNNY   22  17  81 SE7       29.83R WCI  13
$$




USA.gov is the U.S. government's official web portal to all federal, state and local government web resources and services.